World > North America > United States > Iowa

Linden, Iowa Regional Weather

Lat: 41.64N, Lon: 94.27W
Wx Zone: IAZ059Web Search
Linden Weather Warning NWS WEATHER ALERT FOR THE LINDEN, IA AREA - Issued: 243 PM CDT Fri May 14 2021 Linden Weather Warning  

Helpful Tip: You can add this page to Bookmarks by pressing the Ctrl key & d key at the same time. Mac users press command & d.

Feedback


°F Click to change Linden hourly weather to Imperial units.Click to change Linden hourly weather to Metric units. °C
Linden Weather Map
UTC Time: 5/15/2021, 06:06
Your Time:

Linden, IA Regional Weather

Expires:202105150700;;136395
ASUS43 KDMX 150606
RWRIA 

WEATHER ROUNDUP FOR IOWA
NATIONAL WEATHER SERVICE DES MOINES IA
100 AM CDT SAT MAY 15 2021

NOTE: "FAIR" INDICATES FEW OR NO CLOUDS BELOW 12,000 FEET WITH NO
SIGNIFICANT WEATHER AND/OR OBSTRUCTIONS TO VISIBILITY.

* - THESE STATIONS ARE NOT NWS STATIONS...THUS NOT UNDER NWS
QUALITY CONTROL.  THEY ALSO DO NOT REPORT WEATHER SUCH 
AS PRECIPITATION OR FOG.  


IAZ047>049-059>061-072>074-084-150700-
   CENTRAL IOWA
  
CITY           SKY/WX    TMP DP  RH WIND       PRES   REMARKS
AMES           MOCLDY    54  47  77 SE10      30.08F                  
6HR MIN TEMP:  54; 6HR MAX TEMP:  56; 6HR PCP:  0.01;                

ANKENY *       CLOUDY    55  50  82 NE5       30.10R                  
BOONE *        MOCLDY    52  48  87 SE6       30.09S                  
CHARITON *     CLOUDY    55  55 100 SE7       30.08R                  
DES MOINES     CLOUDY    56  50  80 SE6       30.08S                  
6HR MIN TEMP:  56; 6HR MAX TEMP:  63; 6HR PCP:  0.01;                

GRINNELL*      LGT RAIN  55  50  81 SE12      30.12R                  
KNOXVILLE *    LGT RAIN  55  50  82 SE7       30.08S                  
MARSHALLTOWN   CLOUDY    52  49  89 E13       30.10S                  
6HR MIN TEMP:  52; 6HR MAX TEMP:  55; 6HR PCP:  0.16;                

NEWTON *       MOCLDY    54  52  94 SE15      30.09F FOG              
PELLA *        CLOUDY    57  47  69 E7        30.11S                  
PERRY *        FAIR      54  50  87 SE7       30.07S                  
$$
 

SKY/WX - Weather  TMP - Temperature  DP - Dew Point  RH - Relative Humidity
WIND - Wind Direction/Speed PRES - Barometric Pressure VSB - Visibility
WCI - Wind Chill Index E13G22 Wind - East Wind 13 mph/Gusts of 22 mph